Tracking 30995 objects as of 5-Jul-2025
HD Live streaming from Space Station
objects crossing your sky now

COSMOS 1741 DEB *

Track COSMOS 1741 DEB * now!
10-day predictions


NORAD ID: 17843
Int'l Code: 1986-030D
Perigee: 725.0 km
Apogee: 745.5 km
Inclination: 74.0 °
Period: 99.4 minutes
Semi major axis: 7106 km
RCS: 0.0078 m2 (small)
Launch date: April 17, 1986
Source: Commonwealth of Independent States (former USSR) (CIS)
Launch site: PLESETSK MISSILE AND SPACE COMPLEX (PKMTR)

Note: This is SATELLITE DEBRIS
Your satellite tracking list
STARLINK-3938
Track 1 satellite(s)




NASA's NSSDC Master Catalog

Two Line Element Set (TLE):
1 17843U 86030D   25185.69391890  .00001073  00000-0  28824-3 0  9994
2 17843  74.0292 163.9045 0014378 335.9189  24.1297 14.49243552 54696
Source of the keplerian elements: AFSPC